CW5988 Weather Reports


time (UTC)temp
F
wind
direction
speed
knots
gust
knots
rain 1hr
in
rain 24hr
in
rain mn
in
humidity
%
barometer
mb
20260904045432 61 311 7.0 11.3 0.01 0.02 0.02 88 1012.5
20260904044936 61 282 4.3 11.3 0.01 0.02 0.02 88 1012.6
20260904044440 61 276 5.2 11.3 0.01 0.02 0.02 88 1012.6
20260904043923 61 268 4.3 11.3 0.00 0.01 0.01 88 1012.6
20260904043429 62 316 6.1 9.6 0.00 0.01 0.01 88 1012.6
20260904042916 62 280 7.0 9.6 0.00 0.01 0.01 88 1012.6
20260904042424 62 268 4.3 10.4 0.00 0.01 0.01 88 1012.5
20260904041931 62 326 5.2 10.4 0.00 0.01 0.01 88 1012.5
20260904041434 62 282 4.3 8.7 0.00 0.01 0.01 88 1012.4
20260904040921 62 282 5.2 7.0 0.00 0.01 0.01 88 1012.3
20260904040426 62 278 2.6 4.3 0.01 0.01 0.01 88 1012.3
20260904035928 62 215 1.7 3.5 0.01 0.01 0.01 88 1012.2
20260904035434 62 268 0.9 1.7 0.01 0.01 0.01 88 1012.2
20260904034921 62 222 0.0 2.6 0.01 0.01 0.01 88 1012.2
20260904034429 62 215 0.9 2.6 0.01 0.01 0.01 88 1012.2
20260904033935 62 285 1.7 3.5 0.01 0.01 0.01 88 1012.0
20260904033421 62 261 2.6 4.3 0.01 0.01 0.01 87 1012.0
20260904032923 62 275 1.7 6.1 0.01 0.01 0.01 87 1012.0
20260904032425 62 290 3.5 6.1 0.01 0.01 0.01 87 1012.0
20260904031931 62 271 3.5 6.1 0.01 0.01 0.01 87 1011.9
20260904031418 62 212 2.6 6.1 0.01 0.01 0.01 87 1011.9
20260904030928 62 252 2.6 6.1 0.01 0.01 0.01 87 1011.9
20260904030435 62 290 1.7 6.1 0.00 0.00 0.00 87 1011.8
20260904025921 62 283 2.6 8.7 0.00 0.00 0.00 87 1011.8
20260904025424 62 289 3.5 10.4 0.00 0.00 0.00 87 1011.9
20260904024933 62 273 6.1 11.3 0.00 0.00 0.00 87 1011.9
20260904024435 62 329 6.1 11.3 0.00 0.00 0.00 87 1012.0
20260904023950 62 301 6.1 12.2 0.00 0.00 0.00 87 1012.0
20260904023436 62 268 6.1 12.2 0.00 0.00 0.00 87 1012.0
20260904022923 62 283 7.0 9.6 0.00 0.00 0.00 87 1012.1
20260904022431 62 310 5.2 12.2 0.00 0.00 0.00 86 1012.1
20260904021918 62 270 7.8 13.0 0.00 0.00 0.00 86 1012.1
20260904021423 62 284 7.0 13.0 0.00 0.00 0.00 86 1012.1
20260904020929 63 305 7.0 13.0 0.00 0.00 0.00 86 1012.2
20260904020436 63 242 6.1 11.3 0.00 0.00 0.00 86 1012.1
20260904015917 63 274 7.0 10.4 0.00 0.00 0.00 86 1012.0
20260904015425 64 256 7.0 10.4 0.00 0.00 0.00 86 1012.0
20260904014931 64 280 5.2 11.3 0.00 0.00 0.00 85 1012.1
20260904014436 64 273 2.6 13.9 0.00 0.00 0.00 85 1012.0
20260904013953 64 219 6.1 13.9 0.00 0.00 0.00 85 1012.0
20260904013420 64 221 4.3 13.0 0.00 0.00 0.00 85 1012.1
20260904012922 64 238 7.0 14.8 0.00 0.00 0.00 84 1012.1
20260904012430 65 219 7.8 14.8 0.00 0.00 0.00 84 1012.1
20260904011936 66 242 3.5 15.6 0.00 0.00 0.00 84 1012.0
20260904011422 66 276 5.2 14.8 0.00 0.00 0.00 84 1012.1
20260904010929 66 263 7.0 14.8 0.00 0.00 0.00 83 1012.0
20260904010436 66 206 6.1 11.3 0.00 0.00 0.00 83 1012.1
20260904005952 66 277 5.2 14.8 0.00 0.00 0.00 83 1012.2
20260904005436 66 305 8.7 14.8 0.00 0.00 0.00 82 1012.3
20260904004921 66 299 5.2 14.8 0.00 0.00 0.00 82 1012.3
20260904004444 67 230 6.1 17.4 0.00 0.00 0.00 82 1012.2
20260904003931 67 227 6.1 16.5 0.00 0.00 0.00 82 1012.2
20260904003418 67 195 7.0 18.2 0.00 0.00 0.00 82 1012.2
20260904002924 67 210 11.3 18.2 0.00 0.00 0.00 81 1012.3
20260904002428 67 207 7.0 16.5 0.00 0.00 0.00 81 1012.2
20260904001932 67 183 7.8 16.5 0.00 0.00 0.00 81 1012.3
20260904001418 67 194 7.8 14.8 0.00 0.00 0.00 81 1012.2
20260904000944 67 229 5.2 16.5 0.00 0.00 0.00 81 1012.5
20260904000432 67 245 7.0 17.4 0.00 0.00 0.00 80 1012.4
20260903235936 68 219 7.8 17.4 0.00 0.00 0.00 78 1012.4
20260903235424 68 203 3.5 13.9 0.00 0.00 0.00 77 1012.6
20260903234930 69 249 6.1 13.9 0.00 0.00 0.00 76 1012.5
20260903234432 69 214 4.3 11.3 0.00 0.00 0.00 75 1012.5
20260903233916 69 230 7.0 16.5 0.00 0.00 0.00 75 1012.5
20260903233421 69 259 7.8 17.4 0.00 0.00 0.00 75 1012.5
20260903232929 69 242 5.2 15.6 0.00 0.00 0.00 75 1012.6
20260903232435 69 220 7.8 15.6 0.00 0.00 0.00 75 1012.7
20260903231941 69 257 7.0 14.8 0.00 0.00 0.00 74 1012.6
20260903231442 69 249 7.8 16.5 0.00 0.00 0.00 74 1012.7
20260903230926 69 201 8.7 16.5 0.00 0.00 0.00 74 1012.9
20260903230434 70 242 7.0 15.6 0.00 0.00 0.00 74 1013.0
20260903225918 70 230 4.3 15.6 0.00 0.00 0.00 75 1013.1
20260903225426 70 226 7.0 14.8 0.00 0.00 0.00 74 1013.1
20260903224933 70 261 6.1 11.3 0.00 0.00 0.00 75 1013.1
20260903224422 69 268 5.2 17.4 0.00 0.00 0.00 75 1013.2
20260903223929 69 219 10.4 17.4 0.00 0.00 0.00 75 1013.2
20260903223459 69 217 7.0 16.5 0.00 0.00 0.00 75 1013.4
20260903222952 69 212 8.7 19.1 0.00 0.00 0.00 75 1013.3
20260903222436 69 242 7.8 19.1 0.00 0.00 0.00 74 1013.3
20260903221952 70 228 7.8 16.5 0.00 0.00 0.00 74 1013.4
20260903221418 70 218 6.1 13.0 0.00 0.00 0.00 74 1013.5
20260903220927 70 226 5.2 13.0 0.00 0.00 0.00 74 1013.5
20260903220429 70 206 7.0 13.9 0.00 0.00 0.00 74 1013.6
20260903215935 70 306 7.0 13.9 0.00 0.00 0.00 73 1013.5
20260903215451 71 242 7.0 13.0 0.00 0.00 0.00 74 1013.6
20260903214918 70 251 6.1 13.9 0.00 0.00 0.00 75 1013.7
20260903214447 70 242 7.8 13.9 0.00 0.00 0.00 75 1013.7
20260903213937 69 239 4.3 14.8 0.00 0.00 0.00 76 1013.7
20260903213423 69 282 7.0 14.8 0.00 0.00 0.00 75 1013.7
20260903212927 69 213 3.5 14.8 0.00 0.00 0.00 75 1013.8
20260903212434 69 282 7.0 14.8 0.00 0.00 0.00 75 1013.8
20260903211920 69 221 5.2 13.0 0.00 0.00 0.00 74 1013.9
20260903211426 69 256 5.2 13.0 0.00 0.00 0.00 74 1013.9
20260903210932 69 192 6.1 14.8 0.00 0.00 0.00 73 1014.0
20260903210420 70 249 6.1 14.8 0.00 0.00 0.00 73 1014.0
20260903205923 70 194 5.2 11.3 0.00 0.00 0.00 73 1014.0
20260903205425 70 234 6.1 11.3 0.00 0.00 0.00 73 1014.1
20260903204931 70 261 6.1 11.3 0.00 0.00 0.00 72 1014.0
20260903204417 70 227 4.3 10.4 0.00 0.00 0.00 73 1014.1
20260903203944 70 217 4.3 15.6 0.00 0.00 0.00 73 1014.0
20260903203432 69 249 4.3 13.9 0.00 0.00 0.00 74 1014.1
20260903202917 69 235 5.2 13.9 0.00 0.00 0.00 74 1014.1
20260903202426 69 250 6.1 13.0 0.00 0.00 0.00 75 1014.1
20260903201931 69 259 6.1 13.9 0.00 0.00 0.00 74 1014.0
20260903201445 69 278 7.0 13.0 0.00 0.00 0.00 74 1014.1
20260903200932 69 233 6.1 15.6 0.00 0.00 0.00 74 1014.1
20260903200417 69 211 7.0 11.3 0.00 0.00 0.00 74 1014.1
20260903195919 69 251 3.5 14.8 0.00 0.00 0.00 75 1014.2
20260903195424 69 242 8.7 14.8 0.00 0.00 0.00 74 1014.2
20260903194930 69 221 2.6 12.2 0.00 0.00 0.00 75 1014.2
20260903194417 68 240 4.3 13.9 0.00 0.00 0.00 76 1014.2
20260903193923 68 282 6.1 13.0 0.00 0.00 0.00 75 1014.5
20260903193431 68 226 7.8 13.0 0.00 0.00 0.00 75 1014.4
20260903192916 68 94 6.1 12.2 0.00 0.00 0.00 75 1014.6
20260903192425 68 242 7.0 11.3 0.00 0.00 0.00 74 1014.6
20260903191934 69 216 5.2 11.3 0.00 0.00 0.00 73 1014.7
20260903191421 69 242 5.2 10.4 0.00 0.00 0.00 73 1014.7
20260903190927 69 261 7.0 13.9 0.00 0.00 0.00 73 1014.7
20260903190457 69 203 4.3 13.9 0.00 0.00 0.00 73 1014.7
20260903185934 69 230 4.3 10.4 0.00 0.00 0.00 73 1014.7
20260903185420 68 270 4.3 11.3 0.00 0.00 0.00 73 1014.8
20260903184927 68 235 3.5 14.8 0.00 0.00 0.00 74 1014.9
20260903184431 68 203 5.2 10.4 0.00 0.00 0.00 74 1014.9
20260903183936 68 219 4.3 10.4 0.00 0.00 0.00 74 1014.9
20260903183446 68 194 5.2 9.6 0.00 0.00 0.00 74 1014.8
20260903182932 68 215 3.5 8.7 0.00 0.00 0.00 74 1014.9
20260903182439 68 246 5.2 11.3 0.00 0.00 0.00 74 1014.9
20260903181947 67 186 6.1 13.0 0.00 0.00 0.00 74 1014.9
20260903181434 67 177 7.0 13.9 0.00 0.00 0.00 73 1014.9
20260903180919 67 236 7.8 13.9 0.00 0.00 0.00 73 1014.8
20260903180424 67 239 6.1 13.9 0.00 0.00 0.00 73 1014.7
20260903175929 67 216 7.8 13.9 0.00 0.00 0.00 73 1014.7
20260903175435 68 232 7.0 14.8 0.00 0.00 0.00 73 1014.7
20260903174923 68 231 7.8 14.8 0.00 0.00 0.00 73 1014.7
20260903174428 68 213 4.3 11.3 0.00 0.00 0.00 73 1014.7
20260903173932 68 206 5.2 9.6 0.00 0.00 0.00 74 1014.6
20260903173439 67 222 4.3 10.4 0.00 0.00 0.00 74 1014.6
20260903172922 67 209 3.5 10.4 0.00 0.00 0.00 74 1014.6
20260903172425 67 186 2.6 12.2 0.00 0.00 0.00 74 1014.7
20260903171935 67 196 5.2 10.4 0.00 0.00 0.00 74 1014.7
20260903171419 67 207 4.3 12.2 0.00 0.00 0.00 75 1014.7
20260903170924 66 222 4.3 12.2 0.00 0.00 0.00 75 1014.7
20260903170431 66 242 5.2 12.2 0.00 0.00 0.00 76 1014.8
20260903165935 66 219 6.1 11.3 0.00 0.00 0.00 76 1015.0
20260903165419 66 222 2.6 11.3 0.00 0.00 0.00 76 1015.0
20260903164943 65 220 2.6 12.2 0.00 0.00 0.00 76 1015.0
20260903164428 65 218 6.1 12.2 0.00 0.00 0.00 76 1014.9
20260903163936 65 212 6.1 12.2 0.00 0.00 0.00 76 1015.0
20260903163443 65 215 5.2 10.4 0.00 0.00 0.00 76 1015.1
20260903162926 65 222 5.2 11.3 0.00 0.00 0.00 76 1015.2
20260903162432 65 223 3.5 7.8 0.00 0.00 0.00 77 1015.1
20260903161921 65 201 2.6 7.8 0.00 0.00 0.00 77 1015.2
20260903161422 65 185 2.6 7.8 0.00 0.00 0.00 77 1015.2
20260903160920 65 219 4.3 8.7 0.00 0.00 0.00 77 1015.3
20260903160426 65 251 2.6 5.2 0.00 0.00 0.00 78 1015.2
20260903155930 65 177 1.7 5.2 0.00 0.00 0.00 78 1015.2
20260903155417 64 222 2.6 5.2 0.00 0.00 0.00 78 1015.3
20260903154923 64 209 1.7 5.2 0.00 0.00 0.00 79 1015.3
20260903154446 64 225 2.6 5.2 0.00 0.00 0.00 79 1015.2
20260903153931 64 268 1.7 5.2 0.00 0.00 0.00 80 1015.3
20260903153417 64 177 1.7 5.2 0.00 0.00 0.00 80 1015.2
20260903152922 64 171 1.7 5.2 0.00 0.00 0.00 80 1015.2
20260903152430 64 102 1.7 5.2 0.00 0.00 0.00 81 1015.4
20260903151935 63 154 0.9 4.3 0.00 0.00 0.00 81 1015.2
20260903151421 63 256 1.7 3.5 0.00 0.00 0.00 82 1015.2
20260903150926 63 219 0.9 4.3 0.00 0.00 0.00 82 1015.3
20260903150456 63 162 2.6 5.2 0.00 0.00 0.00 82 1015.2
20260903145939 63 247 1.7 5.2 0.00 0.00 0.00 83 1015.1
20260903145427 63 116 0.9 5.2 0.00 0.00 0.00 84 1015.2
20260903144934 63 62 1.7 5.2 0.00 0.00 0.00 84 1015.1
20260903144419 63 45 1.7 3.5 0.00 0.00 0.00 84 1015.1
20260903143925 62 232 1.7 3.5 0.00 0.00 0.00 85 1015.1
20260903143428 62 142 1.7 4.3 0.00 0.00 0.00 85 1015.1
20260903142930 62 222 0.9 4.3 0.00 0.00 0.00 85 1015.1
20260903142418 62 134 1.7 4.3 0.00 0.00 0.00 85 1015.0
20260903141925 62 160 0.9 4.3 0.00 0.00 0.00 85 1014.9
20260903141434 62 242 1.7 3.5 0.00 0.00 0.00 86 1014.8
20260903140919 62 55 1.7 4.3 0.00 0.00 0.00 85 1014.9
20260903140424 61 222 0.9 4.3 0.00 0.00 0.00 85 1014.8
20260903135927 61 137 0.9 2.6 0.00 0.00 0.00 85 1014.9
20260903135431 61 12 0.9 6.1 0.00 0.00 0.00 85 1015.0
20260903134918 61 216 2.6 6.1 0.00 0.00 0.00 85 1015.0
20260903134424 61 246 2.6 7.0 0.00 0.00 0.00 85 1014.9
20260903133932 61 295 3.5 7.0 0.00 0.00 0.00 86 1014.8
20260903133417 61 232 3.5 6.1 0.00 0.00 0.00 86 1014.9
20260903132921 61 177 1.7 5.2 0.00 0.00 0.00 86 1014.8
20260903132426 61 200 2.6 7.8 0.00 0.00 0.00 86 1014.8
20260903131931 61 232 4.3 7.8 0.00 0.00 0.00 86 1014.7
20260903131439 61 205 3.5 7.8 0.00 0.00 0.00 86 1014.8
20260903130925 61 211 2.6 7.0 0.00 0.00 0.00 86 1014.8
20260903130433 61 249 2.6 5.2 0.00 0.00 0.00 86 1014.8
20260903125917 61 207 0.9 2.6 0.00 0.00 0.00 86 1014.9
20260903125424 61 67 0.9 2.6 0.00 0.00 0.00 86 1014.8
20260903124930 61 55 0.9 2.6 0.00 0.00 0.00 86 1014.7
20260903124435 61 209 0.9 2.6 0.00 0.00 0.00 85 1014.8
20260903123952 61 209 1.7 3.5 0.00 0.00 0.00 85 1014.8
20260903123417 61 189 1.7 5.2 0.00 0.00 0.00 85 1014.9
20260903122924 61 214 2.6 5.2 0.00 0.00 0.00 85 1014.8
20260903122431 61 215 0.9 3.5 0.00 0.00 0.00 85 1014.8
20260903121919 62 88 0.9 6.1 0.00 0.00 0.00 85 1014.9
20260903121446 62 212 1.7 6.1 0.00 0.00 0.00 85 1015.0
20260903120930 62 222 2.6 5.2 0.00 0.00 0.00 85 1015.1
20260903120435 62 205 2.6 5.2 0.00 0.00 0.00 85 1015.2
20260903115939 62 226 1.7 7.8 0.00 0.00 0.00 85 1015.2
20260903115455 62 223 3.5 7.8 0.00 0.00 0.00 85 1015.2
20260903114940 62 206 2.6 5.2 0.00 0.00 0.00 85 1015.2
20260903114425 62 196 2.6 5.2 0.00 0.00 0.00 85 1015.3
20260903113927 62 202 2.6 5.2 0.00 0.00 0.00 85 1015.3
20260903113432 62 222 3.5 5.2 0.00 0.00 0.00 85 1015.4
20260903112919 62 210 1.7 6.1 0.00 0.00 0.00 85 1015.4
20260903112427 62 205 2.6 5.2 0.00 0.00 0.00 85 1015.4
20260903111933 62 214 1.7 5.2 0.00 0.00 0.00 85 1015.5
20260903111421 62 151 2.6 6.1 0.00 0.00 0.00 85 1015.6
20260903110926 62 268 3.5 6.1 0.00 0.00 0.00 85 1015.6
20260903110432 62 200 2.6 7.8 0.00 0.00 0.00 85 1015.6
20260903105934 62 219 5.2 8.7 0.00 0.00 0.00 85 1015.7
20260903105420 62 226 4.3 7.8 0.00 0.00 0.00 85 1015.7
20260903104930 62 232 4.3 7.0 0.00 0.00 0.00 85 1015.8
20260903104417 62 215 5.2 7.8 0.00 0.00 0.00 85 1015.7
20260903103924 62 164 4.3 7.8 0.00 0.00 0.00 85 1015.7
20260903103429 62 177 4.3 7.8 0.00 0.00 0.00 85 1015.6
20260903102934 62 214 1.7 6.1 0.00 0.00 0.00 85 1015.7
20260903102420 62 216 1.7 6.1 0.00 0.00 0.00 85 1015.7
20260903101924 62 219 1.7 6.1 0.00 0.00 0.00 85 1015.8
20260903101431 62 202 4.3 6.1 0.00 0.00 0.00 85 1015.9
20260903100919 62 206 2.6 6.1 0.00 0.00 0.00 85 1015.8
20260903100453 62 189 3.5 6.1 0.00 0.00 0.00 85 1015.9
20260903095919 62 339 1.7 5.2 0.00 0.00 0.00 85 1015.8
20260903095425 62 212 3.5 6.1 0.00 0.00 0.00 85 1015.9
20260903094933 62 200 3.5 6.1 0.00 0.00 0.00 85 1016.0
20260903094436 62 196 3.5 6.1 0.00 0.00 0.00 85 1016.0
20260903093952 62 239 2.6 5.2 0.00 0.00 0.00 85 1016.0
20260903093417 62 177 2.6 4.3 0.00 0.00 0.00 85 1016.1
20260903092921 62 268 1.7 2.6 0.00 0.00 0.00 85 1016.1
20260903092424 62 205 1.7 2.6 0.00 0.00 0.00 85 1016.1
20260903091930 62 268 0.9 3.5 0.00 0.00 0.00 85 1016.2
20260903091436 62 192 0.9 5.2 0.00 0.00 0.00 85 1016.2
20260903090920 62 235 3.5 5.2 0.00 0.00 0.00 85 1016.3
20260903090457 62 268 1.7 5.2 0.00 0.00 0.00 85 1016.3
20260903085919 62 218 3.5 5.2 0.00 0.00 0.00 85 1016.3
20260903085428 62 217 2.6 6.1 0.00 0.00 0.00 85 1016.3
20260903084935 62 198 3.5 6.1 0.00 0.00 0.00 85 1016.3
20260903084421 62 222 1.7 6.1 0.00 0.00 0.00 85 1016.3
20260903083926 62 251 2.6 7.8 0.00 0.00 0.00 85 1016.3
20260903083457 62 203 2.6 7.8 0.00 0.00 0.00 85 1016.2
20260903082923 62 247 4.3 7.0 0.00 0.00 0.00 85 1016.3
20260903082431 62 231 2.6 4.3 0.00 0.00 0.00 85 1016.3
20260903081917 62 203 1.7 5.2 0.00 0.00 0.00 85 1016.4
20260903081421 62 226 2.6 5.2 0.00 0.00 0.00 85 1016.4
20260903080929 62 36 2.6 5.2 0.00 0.00 0.00 85 1016.3
20260903080418 62 268 2.6 5.2 0.00 0.00 0.00 85 1016.4
20260903075924 62 268 0.9 5.2 0.00 0.00 0.00 85 1016.4
20260903075428 62 268 1.7 5.2 0.00 0.00 0.00 85 1016.4
20260903074934 62 289 2.6 4.3 0.00 0.00 0.00 85 1016.4
20260903074421 62 278 0.9 4.3 0.00 0.00 0.00 85 1016.3
20260903073926 62 273 1.7 5.2 0.00 0.00 0.00 85 1016.2
20260903073434 62 233 1.7 5.2 0.00 0.00 0.00 85 1016.2
20260903072918 62 252 2.6 4.3 0.00 0.00 0.00 85 1016.3
20260903072427 62 134 1.7 6.1 0.00 0.00 0.00 85 1016.4
20260903071931 62 294 1.7 6.1 0.00 0.00 0.00 85 1016.3
20260903071417 62 217 3.5 5.2 0.00 0.00 0.00 85 1016.2
20260903070924 62 196 1.7 4.3 0.00 0.00 0.00 85 1016.3
20260903070429 62 209 2.6 6.1 0.00 0.00 0.00 84 1016.2
20260903065928 62 211 3.5 8.7 0.00 0.00 0.00 84 1016.2
20260903065434 62 230 4.3 8.7 0.00 0.00 0.00 84 1016.2
20260903064922 62 271 4.3 7.8 0.00 0.00 0.00 84 1016.2
20260903064425 62 239 2.6 6.1 0.00 0.00 0.00 84 1016.2
20260903063931 62 249 3.5 6.1 0.00 0.00 0.00 84 1016.3
20260903063437 62 263 3.5 7.8 0.00 0.00 0.00 84 1016.3
20260903062921 62 235 3.5 8.7 0.00 0.00 0.00 84 1016.4
20260903062456 62 230 5.2 8.7 0.00 0.00 0.00 84 1016.3
20260903061922 62 249 5.2 9.6 0.00 0.00 0.00 84 1016.4
20260903061431 62 258 6.1 9.6 0.00 0.00 0.00 84 1016.4
20260903060919 62 256 4.3 12.2 0.00 0.00 0.00 84 1016.4
20260903060423 62 221 3.5 12.2 0.00 0.00 0.00 84 1016.5
20260903055929 62 197 6.1 12.2 0.00 0.00 0.00 84 1016.5
20260903055434 62 273 4.3 12.2 0.00 0.00 0.00 84 1016.4
20260903054943 62 303 5.2 13.0 0.00 0.00 0.00 84 1016.5
20260903054429 62 268 6.1 13.9 0.00 0.00 0.00 84 1016.5
20260903053936 62 247 4.3 13.9 0.00 0.00 0.00 84 1016.6
20260903053422 62 273 4.3 11.3 0.00 0.00 0.00 84 1016.7
20260903052944 62 254 4.3 13.0 0.00 0.00 0.00 83 1016.6
20260903052432 62 264 4.3 13.0 0.00 0.00 0.00 83 1016.6
20260903051918 62 263 7.0 10.4 0.00 0.00 0.00 83 1016.6
20260903051423 62 270 4.3 10.4 0.00 0.00 0.00 83 1016.7
20260903050930 62 244 4.3 11.3 0.00 0.00 0.00 83 1016.7
20260903050418 62 263 5.2 11.3 0.00 0.00 0.00 83 1016.7
20260903045923 62 217 5.2 10.4 0.00 0.00 0.00 83 1016.8